Tracking 19575 objects as of 18-Feb-2019
HD Live streaming from Space Station
objects crossing your sky now

XIAOXIANG 3

Track XIAOXIANG 3 now!
10-day predictions


NORAD ID: 43944
Int'l Code: 2019-005C
Perigee: 529.4 km
Apogee: 547.2 km
Inclination: 97.5 °
Period: 95.3 minutes
Semi major axis: 6909 km
RCS: Unknown
Launch date: January 21, 2019
Source: People's Republic of China (PRC)
Launch site: Jiuquan Satellite Launch Center, China (JSC)
aabbcc
Your satellite tracking list
Your tracking list is empty




NASA's NSSDC Master Catalog

Two Line Element Set (TLE):
1 43944U 19005C   19049.10543119  .00000593  00000-0  38610-4 0  9995
2 43944  97.5090 147.7257 0012900 184.4312 296.6346 15.11641992  4193
Source of the keplerian elements: AFSPC